Flag for U.S.A. Weather past 2 weeks in Bridgeport, Connecticut, U.S.A.

Now
76 °F

Passing clouds.


Feels Like: 76 °F
Forecast: 70 / 87 °F
Wind: 8 mph from Southwest

Location: Sikorsky Memorial Airport

Current Time: Jul 28, 2015 at 9:32:59 AM

Latest Report: Jul 28, 2015 at 8:52 AM


Visibility: 8 mi

Pressure: 30.00 "Hg

Humidity: 85%

Dew point: 71 °F

Location of BridgeportLocation

Historic Weather in Bridgeport — Graph

°F

Bridgeport temperature yesterday

Maximum temperature yesterday: 81 °F (at 6:52 PM)
Minimum temperature yesterday: 71 °F (at 3:52 AM)
Average temperature yesterday: 75 °F

Past Weeks' High & Low Weather Summary

 TemperatureHumidityPressure
High92 °F (Jul 20, 3:52 PM)97% (Jul 15, 6:52 AM)30.12 "Hg (Jul 15, 6:52 AM)
Low60 °F (Jul 17, 5:52 AM)31% (Jul 22, 4:52 PM)29.56 "Hg (Jul 21, 6:52 PM)
Average76 °F69%29.86 "Hg
* Reported Jul 13 7:52 AM — Jul 28 7:52 AM, Bridgeport, Weather by CustomWeather, © 2015

Note: Actual official high and low records may vary slightly from our data, if they occured in-between our weather recording intervals... More about our weather records

Advertising

Bridgeport weather history for previous 24 hours

 ConditionsComfort  
Time TempWeatherWind HumidityBarometerVisibility
7:52 AM
Tue, Jul 28
75 °FScattered clouds.7 mph88%30.00 "Hg7 mi
6:52 AM72 °FFog.No wind97%30.00 "Hg5 mi
5:52 AM71 °FFog.No wind93%30.00 "Hg5 mi
4:52 AM72 °FClear.No wind91%30.00 "Hg8 mi
3:52 AM73 °FClear.No wind94%29.99 "Hg8 mi
2:52 AM74 °FClear.No wind91%30.00 "Hg9 mi
1:52 AM75 °FClear.5 mph88%30.00 "Hg10 mi
12:52 AM75 °FClear.5 mph85%30.01 "Hg10 mi
11:52 PM
Mon, Jul 27
75 °FPassing clouds.7 mph85%30.01 "Hg10 mi
10:52 PM76 °FPassing clouds.6 mph82%30.01 "Hg10 mi
9:52 PM76 °FPassing clouds.5 mph85%30.02 "Hg10 mi
8:52 PM77 °FSunny.7 mph82%30.00 "Hg10 mi
7:52 PM78 °FSunny.9 mph74%29.99 "Hg10 mi
6:52 PM81 °FSunny.10 mph67%29.98 "Hg10 mi
5:52 PM78 °FSunny.6 mph76%29.99 "Hg10 mi
4:52 PM79 °FSunny.6 mph72%29.99 "Hg10 mi
3:52 PM80 °FSunny.6 mph71%30.00 "Hg10 mi
2:52 PM80 °FSunny.7 mph71%30.01 "Hg10 mi
1:52 PM75 °FSunny.5 mph82%30.02 "Hg10 mi
12:52 PM74 °FScattered clouds.3 mph82%30.03 "Hg10 mi
11:52 AM73 °FLight rain. Fog.6 mph88%30.05 "Hg6 mi
10:52 AM73 °FLight rain. More clouds than sun.No wind90%30.04 "Hg7 mi
9:52 AM72 °FPartly sunny.5 mph87%30.03 "Hg10 mi
Weather by CustomWeather, © 2015

See weather overviewHow to use our weather pages